Weather History for Madisonville, KY

Change the Weather History Date:

Friday, January 3, 2014

  Actual Average (KOWB) Record (KOWB)
Temperature  
Mean Temperature 20 °F -  
Max Temperature 28 °F 44 °F 68 °F (1997)
Min Temperature 12 °F 30 °F -4 °F (1940)
Degree Days  
Heating Degree Days 45    
Moisture  
Dew Point 14 °F    
Average Humidity 74    
Maximum Humidity 93    
Minimum Humidity 53    
Precipitation  
Precipitation 0.00 in - - ()
Sea Level Pressure  
Sea Level Pressure 30.43 in    
Wind  
Wind Speed 5 mph (South)    
Max Wind Speed 10 mph    
Max Gust Speed -    
Visibility 10 miles    
Events      
Averages and records for this station are not official NWS values.
T = Trace of Precipitation, MM = Missing Value Source: NWS Daily Summary

Daily Weather History Graph

Daily Weather History Graph

Search for Another Location

Airport:

Trip Planner

Search our weather history database for the weather conditions in past years. The results will help you decide how hot, cold, wet, or windy it might be!

Date:

Astronomy

Jan. 03, 2014 Rise Set
Actual Time 7:04 AM CST 4:44 PM CST
Civil Twilight 6:35 AM CST 5:13 PM CST
Nautical Twilight 6:02 AM CST 5:45 PM CST
Astronomical Twilight 5:30 AM CST 6:17 PM CST
Moon 8:33 AM CST (1/3) 7:48 PM CST (1/3)
Length of Visible Light 10h 38m
Length of Day
9h 40m
Waxing Crescent, 8% of the Moon is Illuminated
Jan 3
Waxing Crescent
Jan 7
First Quarter
Jan 15
Full
Jan 23
Last Quarter
Jan 30
New

Hourly Weather History & Observations

Time (CST) Temp. Windchill Dew Point Humidity Pressure Visibility Wind Dir Wind Speed Gust Speed Precip Events Conditions
12:15 AM 17.8 °F 5.9 °F 14.0 °F 85% 30.42 in 10.0 mi NNW 10.4 mph - N/A   Clear
12:35 AM 18.0 °F 7.7 °F 14.0 °F 84% 30.44 in 10.0 mi NNW 8.1 mph - N/A   Clear
12:55 AM 17.6 °F 9.3 °F 14.0 °F 86% 30.44 in 10.0 mi NW 5.8 mph - N/A   Clear
1:15 AM 17.2 °F 10.2 °F 13.8 °F 86% 30.45 in 10.0 mi NNW 4.6 mph - N/A   Clear
1:35 AM 16.9 °F 8.5 °F 13.6 °F 87% 30.45 in 10.0 mi NNW 5.8 mph - N/A   Clear
1:55 AM 16.7 °F 8.3 °F 13.6 °F 88% 30.47 in 10.0 mi NW 5.8 mph - N/A   Clear
2:15 AM 16.5 °F 9.4 °F 13.3 °F 87% 30.47 in 10.0 mi NNW 4.6 mph - N/A   Clear
2:35 AM 16.3 °F 9.2 °F 13.1 °F 87% 30.47 in 10.0 mi NNW 4.6 mph - N/A   Clear
2:55 AM 16.2 °F - 13.1 °F 88% 30.47 in 10.0 mi Calm Calm - N/A   Clear
3:15 AM 15.6 °F 10.0 °F 12.7 °F 88% 30.47 in 10.0 mi NNW 3.5 mph - N/A   Clear
3:35 AM 15.4 °F 8.1 °F 12.6 °F 88% 30.47 in 10.0 mi NNW 4.6 mph - N/A   Clear
3:55 AM 15.4 °F 9.8 °F 12.7 °F 89% 30.47 in 10.0 mi NNW 3.5 mph - N/A   Clear
4:15 AM 15.3 °F 9.6 °F 12.6 °F 89% 30.47 in 10.0 mi NW 3.5 mph - N/A   Clear
4:35 AM 14.7 °F 5.9 °F 11.8 °F 88% 30.47 in 10.0 mi North 5.8 mph - N/A   Clear
4:55 AM 14.4 °F 8.6 °F 11.8 °F 90% 30.47 in 10.0 mi NNE 3.5 mph - N/A   Clear
5:15 AM 13.1 °F 7.1 °F 10.8 °F 90% 30.48 in 10.0 mi North 3.5 mph - N/A   Clear
5:35 AM 14.0 °F 6.5 °F 11.7 °F 90% 30.49 in 10.0 mi NNW 4.6 mph - N/A   Clear
5:55 AM 14.2 °F - 11.7 °F 90% 30.49 in 10.0 mi Calm Calm - N/A   Clear
6:15 AM 13.5 °F - 11.3 °F 91% 30.50 in 10.0 mi Calm Calm - N/A   Clear
6:35 AM 13.8 °F - 11.3 °F 90% 30.51 in 10.0 mi Calm Calm - N/A   Clear
6:55 AM 12.9 °F - 10.8 °F 91% 30.52 in 10.0 mi Calm Calm - N/A   Clear
7:15 AM 12.9 °F - 10.8 °F 91% 30.52 in 10.0 mi Calm Calm - N/A   Clear
7:35 AM 13.6 °F - 11.8 °F 93% 30.53 in 10.0 mi Calm Calm - N/A   Clear
7:55 AM 14.9 °F - 12.7 °F 91% 30.54 in 10.0 mi Calm Calm - N/A   Clear
8:15 AM 15.8 °F - 13.1 °F 89% 30.54 in 10.0 mi Calm Calm - N/A   Clear
8:35 AM 16.5 °F - 13.1 °F 86% 30.55 in 10.0 mi Calm Calm - N/A   Clear
8:55 AM 17.4 °F - 13.6 °F 85% 30.55 in 10.0 mi Calm Calm - N/A   Clear
9:15 AM 18.7 °F - 14.2 °F 83% 30.56 in 10.0 mi Calm Calm - N/A   Clear
9:35 AM 19.4 °F - 14.5 °F 81% 30.56 in 10.0 mi Calm Calm - N/A   Clear
9:55 AM 20.3 °F - 13.8 °F 76% 30.56 in 10.0 mi Calm Calm - N/A   Clear
10:15 AM 21.2 °F - 14.2 °F 74% 30.55 in 10.0 mi Calm Calm - N/A   Clear
10:35 AM 22.1 °F - 14.2 °F 72% 30.54 in 10.0 mi Calm Calm - N/A   Clear
10:55 AM 22.5 °F 17.8 °F 14.7 °F 72% 30.53 in 10.0 mi East 3.5 mph - N/A   Clear
11:15 AM 23.5 °F 19.1 °F 14.7 °F 69% 30.52 in 10.0 mi East 3.5 mph - N/A   Clear
11:35 AM 24.3 °F - 14.9 °F 68% 30.50 in 10.0 mi Calm Calm - N/A   Clear
11:55 AM 25.3 °F 17.6 °F 15.3 °F 66% 30.49 in 10.0 mi SE 6.9 mph - N/A   Clear
12:15 PM 25.5 °F 21.3 °F 14.9 °F 64% 30.48 in 10.0 mi WSW 3.5 mph - N/A   Clear
12:35 PM 26.2 °F 19.6 °F 14.7 °F 62% 30.47 in 10.0 mi SW 5.8 mph - N/A   Scattered Clouds
12:55 PM 27.0 °F 21.6 °F 14.4 °F 59% 30.45 in 10.0 mi South 4.6 mph - N/A   Clear
1:15 PM 27.9 °F 22.6 °F 15.3 °F 59% 30.44 in 10.0 mi South 4.6 mph - N/A   Clear
1:35 PM 27.3 °F 19.1 °F 13.3 °F 56% 30.43 in 10.0 mi SSE 8.1 mph - N/A   Clear
1:55 PM 27.5 °F 20.2 °F 13.1 °F 55% 30.42 in 10.0 mi South 6.9 mph - N/A   Clear
2:15 PM 28.2 °F 21.0 °F 13.5 °F 54% 30.42 in 10.0 mi South 6.9 mph - N/A   Clear
2:35 PM 28.4 °F 21.2 °F 13.5 °F 54% 30.42 in 10.0 mi South 6.9 mph - N/A   Clear
2:55 PM 28.6 °F 21.5 °F 13.6 °F 54% 30.41 in 10.0 mi SSE 6.9 mph - N/A   Clear
3:15 PM 28.6 °F 21.5 °F 14.4 °F 55% 30.40 in 10.0 mi South 6.9 mph - N/A   Clear
3:35 PM 28.6 °F 20.7 °F 13.6 °F 54% 30.40 in 10.0 mi South 8.1 mph - N/A   Clear
3:55 PM 28.2 °F 19.5 °F 13.1 °F 53% 30.39 in 10.0 mi South 9.2 mph - N/A   Clear
4:15 PM 27.5 °F 18.6 °F 14.0 °F 57% 30.39 in 10.0 mi South 9.2 mph - N/A   Clear
4:35 PM 26.6 °F 16.8 °F 14.4 °F 60% 30.38 in 10.0 mi South 10.4 mph - N/A   Clear
4:55 PM 25.7 °F 18.0 °F 13.8 °F 61% 30.38 in 10.0 mi South 6.9 mph - N/A   Clear
5:15 PM 25.2 °F 17.3 °F 13.6 °F 62% 30.38 in 10.0 mi South 6.9 mph - N/A   Clear
5:35 PM 24.6 °F 16.7 °F 14.0 °F 64% 30.37 in 10.0 mi South 6.9 mph - N/A   Clear
5:55 PM 24.3 °F 17.3 °F 14.0 °F 65% 30.36 in 10.0 mi South 5.8 mph - N/A   Clear
6:15 PM 23.9 °F 19.5 °F 14.0 °F 66% 30.36 in 10.0 mi SSE 3.5 mph - N/A   Clear
6:35 PM 23.9 °F 19.5 °F 13.8 °F 65% 30.36 in 10.0 mi SSE 3.5 mph - N/A   Clear
6:55 PM 23.5 °F - 13.8 °F 66% 30.35 in 10.0 mi Calm Calm - N/A   Clear
7:15 PM 22.8 °F - 14.5 °F 71% 30.35 in 10.0 mi Calm Calm - N/A   Clear
7:35 PM 23.0 °F 18.4 °F 14.0 °F 68% 30.34 in 10.0 mi SSE 3.5 mph - N/A   Clear
7:55 PM 22.6 °F 16.5 °F 14.0 °F 69% 30.33 in 10.0 mi SSE 4.6 mph - N/A   Clear
8:15 PM 22.5 °F 16.3 °F 14.0 °F 70% 30.32 in 10.0 mi SSE 4.6 mph - N/A   Clear
8:35 PM 22.5 °F 16.3 °F 14.2 °F 71% 30.31 in 10.0 mi SE 4.6 mph - N/A   Clear
8:55 PM 22.5 °F 15.1 °F 14.2 °F 71% 30.30 in 10.0 mi SSE 5.8 mph - N/A   Clear
9:15 PM 23.0 °F 14.7 °F 13.8 °F 68% 30.29 in 10.0 mi SSE 6.9 mph - N/A   Clear
9:35 PM 23.5 °F 13.7 °F 14.0 °F 67% 30.28 in 10.0 mi South 9.2 mph - N/A   Clear
9:55 PM 23.5 °F 13.7 °F 13.8 °F 66% 30.27 in 10.0 mi South 9.2 mph - N/A   Clear
10:15 PM 23.0 °F 14.7 °F 13.8 °F 68% 30.26 in 10.0 mi South 6.9 mph - N/A   Clear
10:35 PM 23.5 °F 14.5 °F 14.0 °F 67% 30.25 in 10.0 mi South 8.1 mph - N/A   Clear
10:55 PM 23.5 °F 14.5 °F 14.0 °F 67% 30.24 in 10.0 mi South 8.1 mph - N/A   Clear
11:15 PM 23.7 °F 15.6 °F 13.8 °F 66% 30.24 in 10.0 mi South 6.9 mph - N/A   Clear
11:35 PM 23.5 °F 15.4 °F 13.8 °F 66% 30.24 in 10.0 mi South 6.9 mph - N/A   Clear
11:55 PM 23.0 °F 15.8 °F 14.0 °F 68% 30.23 in 10.0 mi South 5.8 mph - N/A   Clear